This is the latest recevied weather packets stored in our database for station/object W8DRH-13. If no packets are shown the sender has not sent any weather packets the latest 10 day(s).
| Time | Temp. | Humidity | Pressure | Rain* | Wind** | Luminosity | Snow |
|---|---|---|---|---|---|---|---|
| 1777769820 | 6.11° C | 65% | 1014.9 hPa | 0 mm | - | 0 W/m² | - |
| 1777769517 | 6.11° C | 67% | 1015.2 hPa | 0 mm | - | 0 W/m² | - |
| 1777769213 | 6.67° C | 66% | 1015.1 hPa | 0 mm | - | 0 W/m² | - |
| 1777768912 | 6.67° C | 65% | 1014.9 hPa | 0 mm | - | 0 W/m² | - |
| 1777768608 | 6.11° C | 67% | 1014.9 hPa | 0 mm | - | 0 W/m² | - |
| 1777768305 | 6.67° C | 67% | 1014.8 hPa | 0 mm | - | 0 W/m² | - |
| 1777768002 | 6.67° C | 66% | 1014.8 hPa | 0 mm | - | 1 W/m² | - |
| 1777767699 | 6.67° C | 66% | 1014.8 hPa | 0 mm | - | 3 W/m² | - |
| 1777767394 | 6.67° C | 66% | 1014.6 hPa | 0 mm | - | 5 W/m² | - |
| 1777767092 | 6.67° C | 65% | 1015 hPa | 0 mm | - | 8 W/m² | - |
| 1777766789 | 6.67° C | 66% | 1014.6 hPa | 0 mm | - | 9 W/m² | - |
| 1777766487 | 6.67° C | 65% | 1014.6 hPa | 0 mm | - | 12 W/m² | - |
| 1777766183 | 6.67° C | 65% | 1014.5 hPa | 0 mm | - | 15 W/m² | - |
| 1777765881 | 6.67° C | 65% | 1014.4 hPa | 0 mm | - | 17 W/m² | - |
| 1777765576 | 6.67° C | 64% | 1014.4 hPa | 0 mm | - | 19 W/m² | - |
| 1777765275 | 6.67° C | 64% | 1014.5 hPa | 0 mm | - | 21 W/m² | - |
| 1777764970 | 6.67° C | 65% | 1014.4 hPa | 0 mm | - | 20 W/m² | - |
| 1777764667 | 6.67° C | 63% | 1014.2 hPa | 0 mm | - | 20 W/m² | - |
| 1777764363 | 6.67° C | 62% | 1014.5 hPa | 0 mm | - | 24 W/m² | - |
| 1777764060 | 6.67° C | 64% | 1014.6 hPa | 0 mm | - | 28 W/m² | - |
| 1777763756 | 6.67° C | 66% | 1014.8 hPa | 0 mm | - | 36 W/m² | - |
| 1777763449 | 7.22° C | 67% | 1014.5 hPa | 0 mm | - | 49 W/m² | - |
| 1777763147 | 7.22° C | 67% | 1014.4 hPa | 0 mm | - | 56 W/m² | - |
| 1777762846 | 7.22° C | 67% | 1014.5 hPa | 0 mm | - | 58 W/m² | - |
| 1777762541 | 6.67° C | 65% | 1014.8 hPa | 0 mm | - | 58 W/m² | - |
* Rain latest hour (hover to see other rain measurements)
** Current wind speed in m/s (hover to see current wind gust speed)